| time (UTC) | temp F | wind direction | speed MPH | gust MPH | rain 1hr in | rain 24hr in | rain mn in | humidity % | barometer mb |
| 20260906150433 | 71 | 170 | 1.0 | 3.0 | 0.00 | 0.00 | 0.00 | 84 | 1018.1 |
| 20260906145932 | 71 | 225 | 2.0 | 3.0 | 0.00 | 0.00 | 0.00 | 84 | 1018.3 |
| 20260906145432 | 71 | 197 | 0.0 | 1.0 | 0.00 | 0.00 | 0.00 | 85 | 1018.2 |
| 20260906144927 | 70 | 198 | 1.0 | 2.0 | 0.00 | 0.00 | 0.00 | 85 | 1018.3 |
| 20260906144421 | 70 | 174 | 1.0 | 2.0 | 0.00 | 0.00 | 0.00 | 85 | 1018.1 |
| 20260906143917 | 70 | 203 | 0.0 | 2.0 | 0.00 | 0.00 | 0.00 | 85 | 1018.4 |
| 20260906143412 | 70 | 169 | 2.0 | 2.0 | 0.00 | 0.00 | 0.00 | 84 | 1018.2 |
| 20260906142908 | 70 | 185 | 1.0 | 2.0 | 0.00 | 0.00 | 0.00 | 85 | 1018.3 |
| 20260906142408 | 69 | 207 | 0.0 | 2.0 | 0.00 | 0.00 | 0.00 | 87 | 1018.0 |
| 20260906141902 | 68 | 190 | 0.0 | 1.0 | 0.00 | 0.00 | 0.00 | 87 | 1018.2 |
| 20260906141401 | 68 | 185 | 0.0 | 1.0 | 0.00 | 0.00 | 0.00 | 89 | 1018.1 |
| 20260906140856 | 67 | 295 | 1.0 | 1.0 | 0.00 | 0.00 | 0.00 | 89 | 1018.3 |
| 20260906140351 | 67 | 188 | 0.0 | 1.0 | 0.00 | 0.00 | 0.00 | 90 | 1018.1 |
| 20260906135849 | 66 | 204 | 1.0 | 2.0 | 0.00 | 0.00 | 0.00 | 92 | 1018.1 |
| 20260906135349 | 66 | 212 | 0.0 | 2.0 | 0.00 | 0.00 | 0.00 | 92 | 1018.1 |
| 20260906134844 | 65 | 255 | 0.0 | 1.0 | 0.00 | 0.00 | 0.00 | 93 | 1018.3 |
| 20260906134339 | 65 | 191 | 0.0 | 1.0 | 0.00 | 0.00 | 0.00 | 93 | 1018.0 |
| 20260906133835 | 65 | 202 | 0.0 | 0.0 | 0.00 | 0.00 | 0.00 | 93 | 1018.4 |
| 20260906133330 | 64 | 205 | 0.0 | 1.0 | 0.00 | 0.00 | 0.00 | 94 | 1018.2 |
| 20260906132826 | 64 | 215 | 0.0 | 0.0 | 0.00 | 0.00 | 0.00 | 94 | 1018.3 |
| 20260906132321 | 64 | 180 | 1.0 | 1.0 | 0.00 | 0.00 | 0.00 | 94 | 1018.4 |
| 20260906131816 | 64 | 213 | 0.0 | 1.0 | 0.00 | 0.00 | 0.00 | 94 | 1018.5 |
| 20260906131312 | 63 | 164 | 1.0 | 2.0 | 0.00 | 0.00 | 0.00 | 94 | 1018.2 |
| 20260906130807 | 63 | 206 | 0.0 | 2.0 | 0.00 | 0.00 | 0.00 | 95 | 1018.3 |
| 20260906130307 | 63 | 212 | 0.0 | 1.0 | 0.00 | 0.00 | 0.00 | 95 | 1018.4 |
| 20260906125805 | 63 | 210 | 0.0 | 1.0 | 0.00 | 0.00 | 0.00 | 95 | 1018.3 |
| 20260906125306 | 62 | 181 | 0.0 | 1.0 | 0.00 | 0.00 | 0.00 | 95 | 1018.5 |
| 20260906124758 | 62 | 212 | 0.0 | 0.0 | 0.00 | 0.00 | 0.00 | 95 | 1018.2 |
| 20260906124254 | 62 | 219 | 0.0 | 0.0 | 0.00 | 0.00 | 0.00 | 95 | 1018.3 |
| 20260906123753 | 62 | 208 | 0.0 | 0.0 | 0.00 | 0.00 | 0.00 | 95 | 1018.4 |
| 20260906123248 | 62 | 204 | 0.0 | 1.0 | 0.00 | 0.00 | 0.00 | 95 | 1018.0 |
| 20260906122748 | 62 | 202 | 0.0 | 0.0 | 0.00 | 0.00 | 0.00 | 95 | 1018.3 |
| 20260906122243 | 62 | 213 | 0.0 | 0.0 | 0.00 | 0.00 | 0.00 | 95 | 1018.3 |
| 20260906121740 | 62 | 213 | 0.0 | 0.0 | 0.00 | 0.00 | 0.00 | 95 | 1018.3 |
| 20260906121236 | 62 | 205 | 0.0 | 1.0 | 0.00 | 0.00 | 0.00 | 95 | 1018.2 |
| 20260906120731 | 62 | 199 | 0.0 | 1.0 | 0.00 | 0.00 | 0.00 | 95 | 1018.4 |
| 20260906120228 | 62 | 190 | 0.0 | 1.0 | 0.00 | 0.00 | 0.00 | 95 | 1018.2 |
| 20260906115723 | 62 | 206 | 0.0 | 0.0 | 0.00 | 0.00 | 0.00 | 94 | 1017.9 |
| 20260906115218 | 62 | 205 | 0.0 | 0.0 | 0.00 | 0.00 | 0.00 | 94 | 1018.4 |
| 20260906114717 | 62 | 207 | 0.0 | 0.0 | 0.00 | 0.00 | 0.00 | 94 | 1018.1 |
| 20260906114212 | 62 | 210 | 0.0 | 0.0 | 0.00 | 0.00 | 0.00 | 94 | 1018.2 |
| 20260906113708 | 62 | 209 | 0.0 | 0.0 | 0.00 | 0.00 | 0.00 | 94 | 1017.9 |
| 20260906113207 | 63 | 208 | 0.0 | 0.0 | 0.00 | 0.00 | 0.00 | 94 | 1018.1 |
| 20260906112707 | 63 | 204 | 0.0 | 0.0 | 0.00 | 0.00 | 0.00 | 94 | 1018.1 |
| 20260906112204 | 63 | 207 | 0.0 | 0.0 | 0.00 | 0.00 | 0.00 | 94 | 1018.2 |
| 20260906111703 | 63 | 205 | 0.0 | 0.0 | 0.00 | 0.00 | 0.00 | 94 | 1018.2 |
| 20260906111158 | 63 | 214 | 0.0 | 0.0 | 0.00 | 0.00 | 0.00 | 94 | 1018.3 |
| 20260906110653 | 63 | 208 | 0.0 | 0.0 | 0.00 | 0.00 | 0.00 | 94 | 1018.1 |
| 20260906110148 | 63 | 215 | 0.0 | 0.0 | 0.00 | 0.00 | 0.00 | 94 | 1018.0 |
| 20260906105642 | 63 | 213 | 0.0 | 0.0 | 0.00 | 0.00 | 0.00 | 94 | 1018.1 |
| 20260906105138 | 63 | 213 | 0.0 | 0.0 | 0.00 | 0.00 | 0.00 | 94 | 1018.1 |
| 20260906104638 | 63 | 194 | 0.0 | 1.0 | 0.00 | 0.00 | 0.00 | 94 | 1018.1 |
| 20260906104137 | 62 | 196 | 1.0 | 1.0 | 0.00 | 0.00 | 0.00 | 94 | 1017.8 |
| 20260906103635 | 62 | 203 | 0.0 | 1.0 | 0.00 | 0.00 | 0.00 | 95 | 1018.0 |
| 20260906103130 | 62 | 208 | 0.0 | 0.0 | 0.00 | 0.00 | 0.00 | 94 | 1017.8 |
| 20260906102626 | 62 | 208 | 0.0 | 0.0 | 0.00 | 0.00 | 0.00 | 94 | 1017.9 |
| 20260906102120 | 62 | 213 | 0.0 | 0.0 | 0.00 | 0.00 | 0.00 | 94 | 1017.6 |
| 20260906101615 | 62 | 208 | 0.0 | 1.0 | 0.00 | 0.00 | 0.00 | 94 | 1017.7 |
| 20260906101115 | 62 | 206 | 0.0 | 1.0 | 0.00 | 0.00 | 0.00 | 94 | 1017.6 |
| 20260906100610 | 62 | 211 | 0.0 | 0.0 | 0.00 | 0.00 | 0.00 | 94 | 1017.5 |
| 20260906100105 | 62 | 210 | 0.0 | 0.0 | 0.00 | 0.00 | 0.00 | 94 | 1017.5 |
| 20260906095604 | 62 | 212 | 0.0 | 2.0 | 0.00 | 0.00 | 0.00 | 94 | 1017.5 |
| 20260906095100 | 62 | 215 | 0.0 | 0.0 | 0.00 | 0.00 | 0.00 | 94 | 1017.5 |
| 20260906094559 | 62 | 190 | 1.0 | 2.0 | 0.00 | 0.00 | 0.00 | 94 | 1017.5 |
| 20260906094054 | 62 | 195 | 0.0 | 1.0 | 0.00 | 0.00 | 0.00 | 94 | 1017.4 |
| 20260906093550 | 62 | 206 | 0.0 | 1.0 | 0.00 | 0.00 | 0.00 | 94 | 1017.2 |
| 20260906093045 | 62 | 210 | 0.0 | 1.0 | 0.00 | 0.00 | 0.00 | 94 | 1017.2 |
| 20260906092540 | 62 | 216 | 0.0 | 1.0 | 0.00 | 0.00 | 0.00 | 94 | 1017.1 |
| 20260906092036 | 62 | 205 | 0.0 | 1.0 | 0.00 | 0.00 | 0.00 | 94 | 1017.2 |
| 20260906091531 | 63 | 202 | 0.0 | 0.0 | 0.00 | 0.00 | 0.00 | 94 | 1017.1 |
| 20260906091027 | 63 | 159 | 0.0 | 0.0 | 0.00 | 0.00 | 0.00 | 94 | 1017.0 |
| 20260906090522 | 63 | 207 | 0.0 | 0.0 | 0.00 | 0.00 | 0.00 | 93 | 1017.2 |
| 20260906090017 | 63 | 214 | 0.0 | 1.0 | 0.00 | 0.00 | 0.00 | 93 | 1017.5 |
| 20260906085516 | 63 | 201 | 0.0 | 0.0 | 0.00 | 0.00 | 0.00 | 93 | 1017.2 |
| 20260906085015 | 63 | 198 | 0.0 | 0.0 | 0.00 | 0.00 | 0.00 | 93 | 1017.3 |
| 20260906084510 | 63 | 206 | 0.0 | 1.0 | 0.00 | 0.00 | 0.00 | 93 | 1017.6 |
| 20260906084009 | 63 | 215 | 0.0 | 1.0 | 0.00 | 0.00 | 0.00 | 93 | 1017.5 |
| 20260906083505 | 63 | 248 | 0.0 | 0.0 | 0.00 | 0.00 | 0.00 | 93 | 1017.6 |
| 20260906083004 | 63 | 199 | 0.0 | 1.0 | 0.00 | 0.00 | 0.00 | 93 | 1017.6 |
| 20260906082459 | 63 | 212 | 0.0 | 1.0 | 0.00 | 0.00 | 0.00 | 93 | 1017.5 |
| 20260906081955 | 64 | 187 | 0.0 | 1.0 | 0.00 | 0.00 | 0.00 | 93 | 1017.5 |
| 20260906081450 | 64 | 189 | 1.0 | 2.0 | 0.00 | 0.00 | 0.00 | 93 | 1017.7 |
| 20260906080946 | 64 | 197 | 0.0 | 1.0 | 0.00 | 0.00 | 0.00 | 93 | 1017.7 |
| 20260906080442 | 64 | 211 | 0.0 | 0.0 | 0.00 | 0.00 | 0.00 | 92 | 1017.7 |
| 20260906075937 | 64 | 208 | 0.0 | 1.0 | 0.00 | 0.00 | 0.00 | 92 | 1017.4 |
| 20260906075431 | 64 | 210 | 0.0 | 1.0 | 0.00 | 0.00 | 0.00 | 92 | 1017.7 |
| 20260906074927 | 64 | 195 | 0.0 | 0.0 | 0.00 | 0.00 | 0.00 | 92 | 1017.6 |
| 20260906074421 | 64 | 203 | 0.0 | 0.0 | 0.00 | 0.00 | 0.00 | 92 | 1017.7 |
| 20260906073920 | 64 | 210 | 0.0 | 0.0 | 0.00 | 0.00 | 0.00 | 92 | 1017.9 |
| 20260906073415 | 64 | 197 | 1.0 | 1.0 | 0.00 | 0.00 | 0.00 | 92 | 1017.7 |
| 20260906072911 | 64 | 215 | 0.0 | 0.0 | 0.00 | 0.00 | 0.00 | 92 | 1017.5 |
| 20260906072406 | 64 | 195 | 0.0 | 0.0 | 0.00 | 0.00 | 0.00 | 92 | 1017.7 |
| 20260906071902 | 64 | 210 | 0.0 | 1.0 | 0.00 | 0.00 | 0.00 | 91 | 1017.8 |
| 20260906071357 | 64 | 198 | 0.0 | 1.0 | 0.00 | 0.00 | 0.00 | 91 | 1017.7 |
| 20260906070853 | 64 | 202 | 0.0 | 1.0 | 0.00 | 0.00 | 0.00 | 91 | 1017.4 |
| 20260906070349 | 65 | 204 | 0.0 | 0.0 | 0.00 | 0.00 | 0.00 | 91 | 1017.6 |
| 20260906065844 | 65 | 196 | 0.0 | 1.0 | 0.00 | 0.00 | 0.00 | 91 | 1017.7 |
| 20260906065339 | 65 | 204 | 0.0 | 1.0 | 0.00 | 0.00 | 0.00 | 91 | 1017.6 |
| 20260906064834 | 65 | 6 | 0.0 | 0.0 | 0.00 | 0.00 | 0.00 | 91 | 1017.3 |
| 20260906064331 | 65 | 98 | 0.0 | 1.0 | 0.00 | 0.00 | 0.00 | 91 | 1017.5 |
| 20260906063831 | 65 | 188 | 0.0 | 0.0 | 0.00 | 0.00 | 0.00 | 91 | 1017.4 |
| 20260906063326 | 65 | 181 | 0.0 | 0.0 | 0.00 | 0.00 | 0.00 | 90 | 1017.5 |
| 20260906062821 | 65 | 156 | 0.0 | 1.0 | 0.00 | 0.00 | 0.00 | 90 | 1017.4 |
| 20260906062320 | 65 | 213 | 0.0 | 0.0 | 0.00 | 0.00 | 0.00 | 90 | 1017.6 |
| 20260906061816 | 65 | 213 | 0.0 | 0.0 | 0.00 | 0.00 | 0.00 | 90 | 1017.5 |
| 20260906061312 | 66 | 206 | 0.0 | 0.0 | 0.00 | 0.00 | 0.00 | 90 | 1017.5 |
| 20260906060807 | 66 | 202 | 0.0 | 0.0 | 0.00 | 0.00 | 0.00 | 90 | 1017.7 |
| 20260906060305 | 66 | 208 | 0.0 | 0.0 | 0.00 | 0.00 | 0.00 | 89 | 1017.5 |
| 20260906055800 | 66 | 210 | 0.0 | 0.0 | 0.00 | 0.00 | 0.00 | 89 | 1017.4 |
| 20260906055255 | 66 | 213 | 0.0 | 0.0 | 0.00 | 0.00 | 0.00 | 89 | 1017.4 |
| 20260906054750 | 66 | 198 | 0.0 | 0.0 | 0.00 | 0.00 | 0.00 | 89 | 1017.4 |
| 20260906054246 | 66 | 198 | 0.0 | 1.0 | 0.00 | 0.00 | 0.00 | 89 | 1017.5 |
| 20260906053743 | 66 | 210 | 0.0 | 0.0 | 0.00 | 0.00 | 0.00 | 88 | 1017.6 |
| 20260906053238 | 67 | 211 | 0.0 | 0.0 | 0.00 | 0.00 | 0.00 | 88 | 1017.5 |
| 20260906052733 | 67 | 17 | 1.0 | 2.0 | 0.00 | 0.00 | 0.00 | 88 | 1017.4 |
| 20260906052229 | 67 | 207 | 0.0 | 0.0 | 0.00 | 0.00 | 0.00 | 88 | 1017.3 |
| 20260906051726 | 67 | 206 | 0.0 | 0.0 | 0.00 | 0.00 | 0.00 | 88 | 1017.4 |
| 20260906051225 | 67 | 204 | 0.0 | 1.0 | 0.00 | 0.00 | 0.00 | 88 | 1017.4 |
| 20260906050721 | 67 | 177 | 1.0 | 2.0 | 0.00 | 0.00 | 0.00 | 88 | 1017.6 |
| 20260906050216 | 67 | 204 | 0.0 | 1.0 | 0.00 | 0.00 | 0.00 | 87 | 1017.6 |
| 20260906045714 | 67 | 208 | 0.0 | 1.0 | 0.00 | 0.05 | 0.05 | 87 | 1017.5 |
| 20260906045209 | 67 | 199 | 0.0 | 1.0 | 0.00 | 0.05 | 0.05 | 87 | 1017.5 |
| 20260906044705 | 67 | 205 | 0.0 | 1.0 | 0.00 | 0.05 | 0.05 | 87 | 1017.6 |
| 20260906044200 | 68 | 203 | 3.0 | 3.0 | 0.00 | 0.05 | 0.05 | 86 | 1017.9 |
| 20260906043656 | 68 | 187 | 1.0 | 2.0 | 0.00 | 0.05 | 0.05 | 86 | 1017.6 |
| 20260906043152 | 68 | 189 | 1.0 | 3.0 | 0.00 | 0.05 | 0.05 | 86 | 1017.7 |
| 20260906042651 | 68 | 203 | 0.0 | 2.0 | 0.00 | 0.05 | 0.05 | 85 | 1017.5 |
| 20260906042145 | 68 | 198 | 0.0 | 1.0 | 0.00 | 0.05 | 0.05 | 85 | 1017.8 |
| 20260906041641 | 68 | 199 | 1.0 | 2.0 | 0.00 | 0.05 | 0.05 | 85 | 1017.5 |
| 20260906041136 | 68 | 185 | 2.0 | 2.0 | 0.00 | 0.05 | 0.05 | 84 | 1017.6 |
| 20260906040631 | 69 | 185 | 2.0 | 2.0 | 0.00 | 0.05 | 0.05 | 84 | 1017.1 |
| 20260906040127 | 69 | 203 | 0.0 | 2.0 | 0.00 | 0.05 | 0.05 | 84 | 1017.4 |
| 20260906035622 | 69 | 186 | 2.0 | 3.0 | 0.00 | 0.05 | 0.05 | 83 | 1017.3 |
| 20260906035118 | 69 | 204 | 1.0 | 2.0 | 0.00 | 0.05 | 0.05 | 83 | 1017.4 |
| 20260906034618 | 69 | 206 | 1.0 | 2.0 | 0.00 | 0.05 | 0.05 | 83 | 1017.3 |
| 20260906034112 | 69 | 181 | 1.0 | 2.0 | 0.00 | 0.05 | 0.05 | 82 | 1017.3 |
| 20260906033608 | 70 | 200 | 1.0 | 5.0 | 0.00 | 0.05 | 0.05 | 82 | 1017.5 |
| 20260906033103 | 70 | 155 | 2.0 | 3.0 | 0.00 | 0.05 | 0.05 | 81 | 1017.6 |
| 20260906032600 | 70 | 180 | 1.0 | 3.0 | 0.00 | 0.05 | 0.05 | 81 | 1017.5 |
| 20260906032100 | 70 | 199 | 0.0 | 3.0 | 0.00 | 0.05 | 0.05 | 81 | 1017.6 |
| 20260906031555 | 70 | 178 | 1.0 | 2.0 | 0.00 | 0.05 | 0.05 | 80 | 1017.6 |
| 20260906031050 | 70 | 188 | 2.0 | 3.0 | 0.00 | 0.05 | 0.05 | 80 | 1017.6 |
| 20260906030549 | 71 | 203 | 1.0 | 2.0 | 0.00 | 0.05 | 0.05 | 80 | 1017.7 |
| 20260906030043 | 71 | 189 | 1.0 | 3.0 | 0.00 | 0.05 | 0.05 | 80 | 1017.7 |
| 20260906025538 | 71 | 195 | 1.0 | 1.0 | 0.00 | 0.05 | 0.05 | 80 | 1017.7 |
| 20260906025036 | 71 | 198 | 0.0 | 1.0 | 0.00 | 0.05 | 0.05 | 79 | 1018.0 |
| 20260906024531 | 71 | 197 | 0.0 | 1.0 | 0.00 | 0.05 | 0.05 | 79 | 1017.7 |
| 20260906024026 | 71 | 192 | 1.0 | 2.0 | 0.00 | 0.05 | 0.05 | 79 | 1017.7 |
| 20260906023522 | 72 | 180 | 1.0 | 1.0 | 0.00 | 0.05 | 0.05 | 78 | 1018.0 |
| 20260906023016 | 72 | 199 | 1.0 | 2.0 | 0.00 | 0.05 | 0.05 | 78 | 1017.6 |
| 20260906022511 | 72 | 204 | 0.0 | 1.0 | 0.00 | 0.05 | 0.05 | 78 | 1017.8 |
| 20260906022007 | 72 | 182 | 0.0 | 2.0 | 0.00 | 0.05 | 0.05 | 77 | 1017.7 |
| 20260906021502 | 72 | 210 | 0.0 | 1.0 | 0.00 | 0.05 | 0.05 | 77 | 1017.9 |
| 20260906020956 | 72 | 196 | 1.0 | 2.0 | 0.00 | 0.05 | 0.05 | 77 | 1017.7 |
| 20260906020445 | 73 | 191 | 1.0 | 2.0 | 0.00 | 0.05 | 0.05 | 77 | 1017.7 |
| 20260906015944 | 73 | 183 | 1.0 | 2.0 | 0.00 | 0.05 | 0.05 | 77 | 1017.5 |
| 20260906015444 | 73 | 211 | 0.0 | 1.0 | 0.00 | 0.05 | 0.05 | 76 | 1017.8 |
| 20260906014943 | 73 | 181 | 1.0 | 3.0 | 0.00 | 0.05 | 0.05 | 76 | 1017.7 |
| 20260906014438 | 73 | 191 | 0.0 | 2.0 | 0.00 | 0.05 | 0.05 | 76 | 1017.4 |
| 20260906013934 | 73 | 199 | 1.0 | 3.0 | 0.00 | 0.05 | 0.05 | 76 | 1017.3 |
| 20260906013430 | 74 | 200 | 1.0 | 1.0 | 0.00 | 0.05 | 0.05 | 75 | 1017.2 |
| 20260906012926 | 74 | 208 | 0.0 | 1.0 | 0.00 | 0.05 | 0.05 | 75 | 1017.3 |
| 20260906012425 | 74 | 208 | 0.0 | 1.0 | 0.00 | 0.05 | 0.05 | 74 | 1017.4 |
| 20260906011924 | 75 | 208 | 0.0 | 0.0 | 0.00 | 0.05 | 0.05 | 73 | 1017.1 |
| 20260906011420 | 75 | 205 | 0.0 | 1.0 | 0.00 | 0.05 | 0.05 | 73 | 1017.2 |
| 20260906010915 | 75 | 185 | 1.0 | 2.0 | 0.00 | 0.05 | 0.05 | 72 | 1017.0 |
| 20260906010411 | 75 | 196 | 1.0 | 1.0 | 0.00 | 0.05 | 0.05 | 72 | 1017.0 |
| 20260906005907 | 75 | 202 | 0.0 | 1.0 | 0.00 | 0.05 | 0.05 | 73 | 1016.9 |
| 20260906005406 | 75 | 217 | 0.0 | 0.0 | 0.00 | 0.05 | 0.05 | 72 | 1016.8 |
| 20260906004904 | 76 | 217 | 0.0 | 0.0 | 0.00 | 0.05 | 0.05 | 72 | 1016.6 |
| 20260906004359 | 76 | 215 | 0.0 | 0.0 | 0.00 | 0.05 | 0.05 | 71 | 1016.7 |
| 20260906003855 | 77 | 206 | 0.0 | 0.0 | 0.00 | 0.05 | 0.05 | 69 | 1016.5 |
| 20260906003350 | 77 | 210 | 0.0 | 0.0 | 0.00 | 0.05 | 0.05 | 69 | 1016.2 |
| 20260906002846 | 77 | 206 | 0.0 | 1.0 | 0.00 | 0.05 | 0.05 | 68 | 1016.3 |
| 20260906002344 | 77 | 203 | 1.0 | 2.0 | 0.00 | 0.05 | 0.05 | 69 | 1016.1 |
| 20260906001840 | 77 | 210 | 0.0 | 1.0 | 0.00 | 0.05 | 0.05 | 70 | 1015.8 |
| 20260906001336 | 77 | 211 | 0.0 | 0.0 | 0.00 | 0.05 | 0.05 | 70 | 1015.9 |
| 20260906000831 | 77 | 208 | 0.0 | 0.0 | 0.00 | 0.05 | 0.05 | 69 | 1015.7 |
| 20260906000326 | 77 | 198 | 0.0 | 2.0 | 0.00 | 0.05 | 0.05 | 68 | 1015.8 |
| 20260905235825 | 78 | 205 | 0.0 | 1.0 | 0.00 | 0.05 | 0.05 | 68 | 1015.9 |
| 20260905235320 | 78 | 204 | 1.0 | 1.0 | 0.00 | 0.05 | 0.05 | 68 | 1015.6 |
| 20260905234815 | 78 | 206 | 0.0 | 1.0 | 0.00 | 0.05 | 0.05 | 68 | 1015.9 |
| 20260905234311 | 78 | 202 | 1.0 | 1.0 | 0.00 | 0.05 | 0.05 | 67 | 1015.9 |
| 20260905233805 | 78 | 205 | 0.0 | 1.0 | 0.00 | 0.05 | 0.05 | 66 | 1015.7 |
| 20260905233300 | 79 | 198 | 0.0 | 1.0 | 0.00 | 0.05 | 0.05 | 66 | 1015.9 |
| 20260905232759 | 79 | 218 | 1.0 | 1.0 | 0.00 | 0.05 | 0.05 | 65 | 1015.8 |
| 20260905232255 | 80 | 177 | 1.0 | 3.0 | 0.00 | 0.05 | 0.05 | 64 | 1015.6 |
| 20260905231751 | 80 | 208 | 1.0 | 1.0 | 0.00 | 0.05 | 0.05 | 63 | 1015.6 |
| 20260905231246 | 81 | 209 | 1.0 | 2.0 | 0.00 | 0.05 | 0.05 | 62 | 1015.4 |
| 20260905230742 | 81 | 216 | 0.0 | 1.0 | 0.00 | 0.05 | 0.05 | 61 | 1015.4 |
| 20260905230240 | 82 | 229 | 1.0 | 2.0 | 0.00 | 0.05 | 0.05 | 60 | 1015.4 |
| 20260905225739 | 82 | 193 | 2.0 | 3.0 | 0.00 | 0.05 | 0.05 | 60 | 1015.5 |
| 20260905225235 | 82 | 204 | 2.0 | 5.0 | 0.00 | 0.05 | 0.05 | 60 | 1015.3 |
| 20260905224734 | 82 | 175 | 2.0 | 3.0 | 0.00 | 0.05 | 0.05 | 61 | 1015.4 |
| 20260905224230 | 82 | 201 | 1.0 | 3.0 | 0.00 | 0.05 | 0.05 | 61 | 1015.3 |
| 20260905223726 | 82 | 213 | 0.0 | 3.0 | 0.00 | 0.05 | 0.05 | 62 | 1015.6 |
| 20260905223222 | 82 | 122 | 2.0 | 3.0 | 0.00 | 0.05 | 0.05 | 63 | 1015.4 |
| 20260905222718 | 82 | 202 | 3.0 | 3.0 | 0.00 | 0.05 | 0.05 | 63 | 1015.3 |
| 20260905222217 | 82 | 193 | 0.0 | 5.0 | 0.00 | 0.05 | 0.05 | 64 | 1015.5 |
| 20260905221713 | 82 | 193 | 3.0 | 3.0 | 0.00 | 0.05 | 0.05 | 62 | 1015.5 |
| 20260905221209 | 82 | 177 | 2.0 | 5.0 | 0.00 | 0.05 | 0.05 | 62 | 1015.5 |
| 20260905220705 | 81 | 152 | 2.0 | 3.0 | 0.00 | 0.05 | 0.05 | 63 | 1015.6 |
| 20260905220201 | 81 | 107 | 2.0 | 3.0 | 0.00 | 0.05 | 0.05 | 62 | 1015.5 |
| 20260905215700 | 81 | 200 | 3.0 | 3.0 | 0.00 | 0.05 | 0.05 | 62 | 1015.8 |
| 20260905215156 | 81 | 128 | 2.0 | 2.0 | 0.00 | 0.05 | 0.05 | 61 | 1015.6 |
| 20260905214652 | 81 | 109 | 3.0 | 5.0 | 0.00 | 0.05 | 0.05 | 62 | 1015.7 |
| 20260905214147 | 82 | 193 | 3.0 | 5.0 | 0.00 | 0.05 | 0.05 | 61 | 1016.1 |
| 20260905213642 | 82 | 143 | 3.0 | 6.0 | 0.00 | 0.05 | 0.05 | 61 | 1015.7 |
| 20260905213137 | 82 | 201 | 2.0 | 5.0 | 0.00 | 0.05 | 0.05 | 61 | 1015.9 |
| 20260905212633 | 82 | 192 | 1.0 | 3.0 | 0.00 | 0.05 | 0.05 | 63 | 1015.9 |
| 20260905212132 | 81 | 122 | 2.0 | 5.0 | 0.00 | 0.05 | 0.05 | 63 | 1016.3 |
| 20260905211627 | 81 | 212 | 1.0 | 6.0 | 0.00 | 0.05 | 0.05 | 63 | 1016.2 |
| 20260905211123 | 82 | 209 | 1.0 | 3.0 | 0.00 | 0.05 | 0.05 | 64 | 1016.2 |
| 20260905210619 | 81 | 201 | 0.0 | 2.0 | 0.00 | 0.05 | 0.05 | 65 | 1016.2 |
| 20260905210113 | 80 | 172 | 2.0 | 6.0 | 0.00 | 0.05 | 0.05 | 64 | 1016.2 |
| 20260905205613 | 80 | 139 | 2.0 | 5.0 | 0.00 | 0.05 | 0.05 | 64 | 1016.1 |
| 20260905205112 | 80 | 156 | 1.0 | 6.0 | 0.00 | 0.05 | 0.05 | 65 | 1015.9 |
| 20260905204606 | 80 | 149 | 1.0 | 3.0 | 0.00 | 0.05 | 0.05 | 65 | 1015.9 |
| 20260905204101 | 79 | 169 | 3.0 | 8.0 | 0.00 | 0.05 | 0.05 | 65 | 1016.3 |
| 20260905203556 | 80 | 229 | 2.0 | 5.0 | 0.00 | 0.05 | 0.05 | 65 | 1016.2 |
| 20260905203052 | 80 | 134 | 3.0 | 5.0 | 0.00 | 0.05 | 0.05 | 67 | 1016.3 |
| 20260905202547 | 79 | 192 | 2.0 | 5.0 | 0.00 | 0.05 | 0.05 | 67 | 1016.4 |
| 20260905202042 | 80 | 146 | 3.0 | 6.0 | 0.00 | 0.05 | 0.05 | 65 | 1016.2 |
| 20260905201538 | 79 | 206 | 1.0 | 1.0 | 0.00 | 0.05 | 0.05 | 67 | 1016.3 |
| 20260905201037 | 78 | 141 | 4.0 | 5.0 | 0.00 | 0.05 | 0.05 | 67 | 1016.3 |
| 20260905200533 | 78 | 196 | 1.0 | 1.0 | 0.00 | 0.05 | 0.05 | 68 | 1016.1 |
| 20260905200032 | 78 | 216 | 0.0 | 5.0 | 0.00 | 0.05 | 0.05 | 68 | 1015.8 |
| 20260905195526 | 78 | 209 | 1.0 | 3.0 | 0.00 | 0.05 | 0.05 | 69 | 1015.5 |
| 20260905195022 | 77 | 210 | 3.0 | 6.0 | 0.00 | 0.05 | 0.05 | 69 | 1015.6 |
| 20260905194521 | 77 | 227 | 1.0 | 5.0 | 0.00 | 0.05 | 0.05 | 69 | 1015.9 |
| 20260905194015 | 77 | 199 | 0.0 | 3.0 | 0.00 | 0.05 | 0.05 | 70 | 1015.9 |
| 20260905193510 | 77 | 141 | 3.0 | 3.0 | 0.00 | 0.05 | 0.05 | 71 | 1016.1 |
| 20260905193006 | 77 | 103 | 2.0 | 3.0 | 0.00 | 0.05 | 0.05 | 72 | 1016.3 |
| 20260905192501 | 76 | 179 | 1.0 | 2.0 | 0.00 | 0.05 | 0.05 | 73 | 1016.2 |
| 20260905191957 | 76 | 162 | 1.0 | 2.0 | 0.00 | 0.05 | 0.05 | 73 | 1016.2 |
| 20260905191455 | 75 | 179 | 2.0 | 5.0 | 0.00 | 0.05 | 0.05 | 74 | 1016.2 |
| 20260905190954 | 75 | 212 | 1.0 | 3.0 | 0.00 | 0.05 | 0.05 | 74 | 1016.1 |
| 20260905190452 | 75 | 182 | 2.0 | 5.0 | 0.00 | 0.05 | 0.05 | 74 | 1016.3 |
| 20260905185951 | 75 | 167 | 1.0 | 3.0 | 0.00 | 0.05 | 0.05 | 74 | 1016.4 |
| 20260905185447 | 74 | 208 | 1.0 | 5.0 | 0.00 | 0.05 | 0.05 | 75 | 1016.7 |
| 20260905184945 | 74 | 128 | 1.0 | 8.0 | 0.00 | 0.05 | 0.05 | 76 | 1016.7 |
| 20260905184441 | 74 | 142 | 3.0 | 3.0 | 0.00 | 0.05 | 0.05 | 76 | 1016.8 |
| 20260905183939 | 73 | 204 | 0.0 | 3.0 | 0.00 | 0.05 | 0.05 | 78 | 1016.7 |
| 20260905183433 | 73 | 200 | 1.0 | 5.0 | 0.00 | 0.05 | 0.05 | 78 | 1016.6 |
| 20260905182929 | 72 | 152 | 1.0 | 5.0 | 0.00 | 0.05 | 0.05 | 80 | 1016.5 |
| 20260905182428 | 72 | 162 | 1.0 | 5.0 | 0.00 | 0.05 | 0.05 | 80 | 1016.2 |
| 20260905181924 | 72 | 116 | 1.0 | 5.0 | 0.00 | 0.05 | 0.05 | 80 | 1016.6 |
| 20260905181418 | 72 | 149 | 1.0 | 7.0 | 0.00 | 0.05 | 0.05 | 81 | 1016.6 |
| 20260905180918 | 71 | 185 | 2.0 | 5.0 | 0.00 | 0.05 | 0.05 | 82 | 1016.6 |
| 20260905180413 | 71 | 215 | 0.0 | 3.0 | 0.00 | 0.05 | 0.05 | 83 | 1016.8 |
| 20260905175913 | 71 | 357 | 1.0 | 2.0 | 0.00 | 0.05 | 0.05 | 84 | 1016.5 |
| 20260905175412 | 70 | 280 | 1.0 | 3.0 | 0.00 | 0.05 | 0.05 | 85 | 1016.8 |
| 20260905174907 | 69 | 165 | 2.0 | 5.0 | 0.00 | 0.05 | 0.05 | 86 | 1016.7 |
| 20260905174403 | 69 | 176 | 1.0 | 3.0 | 0.00 | 0.05 | 0.05 | 88 | 1017.2 |
| 20260905173858 | 69 | 76 | 2.0 | 5.0 | 0.00 | 0.05 | 0.05 | 89 | 1017.2 |
| 20260905173355 | 68 | 56 | 1.0 | 2.0 | 0.00 | 0.05 | 0.05 | 91 | 1017.0 |
| 20260905172849 | 67 | 8 | 3.0 | 5.0 | 0.00 | 0.05 | 0.05 | 92 | 1017.2 |
| 20260905172347 | 67 | 129 | 4.0 | 6.0 | 0.00 | 0.05 | 0.05 | 93 | 1016.9 |
| 20260905171843 | 67 | 219 | 1.0 | 3.0 | 0.00 | 0.05 | 0.05 | 93 | 1017.2 |
| 20260905171340 | 66 | 202 | 0.0 | 3.0 | 0.00 | 0.05 | 0.05 | 94 | 1017.3 |
| 20260905170836 | 66 | 219 | 3.0 | 6.0 | 0.00 | 0.05 | 0.05 | 94 | 1016.8 |
| 20260905170332 | 66 | 213 | 1.0 | 7.0 | 0.00 | 0.05 | 0.05 | 95 | 1017.5 |
| 20260905165831 | 66 | 192 | 0.0 | 5.0 | 0.00 | 0.05 | 0.05 | 95 | 1017.0 |
| 20260905165327 | 65 | 159 | 2.0 | 5.0 | 0.00 | 0.05 | 0.05 | 95 | 1017.0 |
| 20260905164826 | 65 | 191 | 0.0 | 2.0 | 0.00 | 0.05 | 0.05 | 95 | 1017.1 |
| 20260905164321 | 65 | 198 | 0.0 | 3.0 | 0.00 | 0.05 | 0.05 | 96 | 1017.4 |
| 20260905163817 | 64 | 166 | 0.0 | 2.0 | 0.00 | 0.05 | 0.05 | 96 | 1017.4 |
| 20260905163313 | 64 | 98 | 3.0 | 5.0 | 0.00 | 0.05 | 0.05 | 96 | 1017.2 |
| 20260905162809 | 64 | 206 | 2.0 | 5.0 | 0.00 | 0.05 | 0.05 | 96 | 1017.3 |
| 20260905162309 | 64 | 186 | 0.0 | 1.0 | 0.00 | 0.05 | 0.05 | 96 | 1017.5 |
| 20260905161803 | 64 | 60 | 2.0 | 3.0 | 0.00 | 0.05 | 0.05 | 96 | 1017.7 |
| 20260905161303 | 64 | 208 | 1.0 | 2.0 | 0.00 | 0.05 | 0.05 | 96 | 1017.4 |
| 20260905160801 | 63 | 156 | 0.0 | 3.0 | 0.00 | 0.05 | 0.05 | 96 | 1017.1 |
| 20260905160255 | 63 | 185 | 1.0 | 6.0 | 0.00 | 0.05 | 0.05 | 96 | 1016.6 |
| 20260905155750 | 63 | 183 | 1.0 | 6.0 | 0.00 | 0.05 | 0.05 | 96 | 1016.7 |
| 20260905155249 | 63 | 205 | 4.0 | 7.0 | 0.00 | 0.05 | 0.05 | 96 | 1016.5 |
| 20260905154743 | 62 | 168 | 3.0 | 7.0 | 0.00 | 0.05 | 0.05 | 96 | 1015.1 |
| 20260905154239 | 62 | 202 | 4.0 | 8.0 | 0.07 | 0.05 | 0.05 | 96 | 1015.0 |
| 20260905153735 | 62 | 176 | 3.0 | 5.0 | 0.07 | 0.05 | 0.05 | 96 | 1016.5 |
| 20260905153230 | 62 | 170 | 5.0 | 7.0 | 0.00 | 0.04 | 0.04 | 96 | 1017.5 |
| 20260905152724 | 62 | 132 | 3.0 | 6.0 | 0.00 | 0.04 | 0.04 | 96 | 1018.0 |
| 20260905152219 | 62 | 183 | 1.0 | 6.0 | 0.00 | 0.04 | 0.04 | 95 | 1017.9 |
| 20260905151719 | 62 | 127 | 1.0 | 3.0 | 0.00 | 0.04 | 0.04 | 95 | 1018.5 |
| 20260905151215 | 62 | 178 | 2.0 | 2.0 | 0.00 | 0.04 | 0.04 | 95 | 1018.7 |